TimeEDT,TemperatureF,Dew PointF,Humidity,Sea Level PressureIn,VisibilityMPH,Wind Direction,Wind SpeedMPH,Gust SpeedMPH,PrecipitationIn,Events,Conditions,WindDirDegrees,DateUTC
12:54 AM,66.9,57.0,70,30.02,10.0,Calm,Calm,-,N/A,,Clear,0,2013-08-05 04:54:00
1:54 AM,64.0,57.9,80,30.01,10.0,Calm,Calm,-,N/A,,Clear,0,2013-08-05 05:54:00
2:54 AM,62.1,57.0,84,30.02,10.0,Calm,Calm,-,N/A,,Clear,0,2013-08-05 06:54:00
3:54 AM,64.0,57.0,78,30.03,10.0,Calm,Calm,-,N/A,,Clear,0,2013-08-05 07:54:00
4:54 AM,64.0,55.9,75,30.03,10.0,NNE,3.5,-,N/A,,Clear,20,2013-08-05 08:54:00
5:54 AM,64.0,55.9,75,30.04,10.0,Calm,Calm,-,N/A,,Clear,0,2013-08-05 09:54:00
6:54 AM,66.0,57.0,73,30.06,10.0,Calm,Calm,-,N/A,,Clear,0,2013-08-05 10:54:00
7:54 AM,70.0,57.9,65,30.08,10.0,NNE,4.6,-,N/A,,Clear,30,2013-08-05 11:54:00
8:54 AM,73.9,55.0,52,30.09,10.0,NE,10.4,-,N/A,,Clear,40,2013-08-05 12:54:00
9:54 AM,75.0,54.0,48,30.09,10.0,NE,6.9,-,N/A,,Clear,50,2013-08-05 13:54:00
10:54 AM,78.1,53.1,42,30.11,10.0,North,5.8,-,N/A,,Clear,350,2013-08-05 14:54:00
11:54 AM,79.0,55.0,44,30.10,10.0,NNE,5.8,-,N/A,,Partly Cloudy,30,2013-08-05 15:54:00
12:54 PM,80.1,55.9,43,30.09,10.0,NNW,4.6,-,N/A,,Mostly Cloudy,330,2013-08-05 16:54:00
1:54 PM,82.0,55.0,39,30.07,10.0,West,5.8,-,N/A,,Scattered Clouds,280,2013-08-05 17:54:00
2:54 PM,79.0,53.1,40,30.06,10.0,Variable,3.5,-,N/A,,Overcast,0,2013-08-05 18:54:00
3:54 PM,81.0,52.0,36,30.04,10.0,West,3.5,-,N/A,,Mostly Cloudy,260,2013-08-05 19:54:00
4:54 PM,80.1,59.0,48,30.04,10.0,SSW,5.8,17.3,N/A,,Overcast,200,2013-08-05 20:54:00
5:54 PM,78.1,59.0,52,30.04,10.0,SSE,6.9,-,N/A,,Overcast,160,2013-08-05 21:54:00
6:54 PM,77.0,59.0,54,30.05,10.0,South,6.9,-,N/A,,Mostly Cloudy,170,2013-08-05 22:54:00
7:54 PM,73.0,63.0,71,30.06,10.0,ESE,3.5,-,N/A,,Clear,120,2013-08-05 23:54:00
8:54 PM,70.0,62.1,76,30.08,10.0,Calm,Calm,-,N/A,,Clear,0,2013-08-06 00:54:00
9:54 PM,70.0,60.1,71,30.06,10.0,SSE,6.9,-,N/A,,Clear,150,2013-08-06 01:54:00
10:54 PM,66.9,60.1,79,30.06,10.0,ESE,4.6,-,N/A,,Clear,110,2013-08-06 02:54:00
11:54 PM,66.9,61.0,81,30.06,10.0,Calm,Calm,-,N/A,,Clear,0,2013-08-06 03:54:00